{"data":{"norad_id":43146,"epoch":"2026-09-20T05:27:34.177824Z","epoch_age_seconds":75120,"freshness":"FRESH","line1":"1 43146U 18006A   26263.22747891  .00006740  00000+0  18946-3 0  9999","line2":"2 43146  97.6718  67.7008 0002613 355.5409   4.5811 15.36866886483303","mean_motion":15.36866886,"eccentricity":0.0002613,"inclination_deg":97.6718,"raan_deg":67.7008,"arg_perigee_deg":355.5409,"mean_anomaly_deg":4.5811,"bstar":0.00018946,"rev_number":48330,"period_min":93.697119322278,"perigee_km":453.59534619757,"apogee_km":457.16654267533,"semimajor_km":6833.5179444364,"source":"CELESTRAK","updated_at":"2026-09-20T09:00:14.302708Z"}}